This demonstration page uses our WeatherBlox Daily Observations layout. Learn more.

Left ArrowRight Arrow

Hourly Observations for July 15, 2018

Temp ( °F °C ) Dew Point ( °F °C ) Humidity (%) Winds ( mph kmh ) Pressure ( in mb ) Visibility ( mi km ) Precip ( " mm )
12:53 am 00:53 Mostly Clear 50 10 42 5.6 74 74 SE 3 6 30.25 1024 10 16 0.00 0.00
1:53 am 01:53 Partly Cloudy 50 10 41 5 71 71 SSE 5 7 30.23 1024 10 16 0.00 0.00
2:53 am 02:53 Clear 51 10.6 41 5 69 69 Calm 30.21 1023 10 16 0.00 0.00
3:53 am 03:53 Clear 48 8.9 40 4.4 74 74 Calm 30.21 1023 10 16 0.00 0.00
4:53 am 04:53 Clear 47 8.3 39 3.9 74 74 E 6 9 30.21 1023 10 16 0.00 0.00
5:53 am 05:53 Sunny 49 9.4 39 3.9 69 69 ENE 8 13 30.20 1023 10 16 0.00 0.00
6:53 am 06:53 Sunny 51 10.6 40 4.4 66 66 ENE 6 9 30.19 1022 10 16 0.00 0.00
7:53 am 07:53 Sunny 56 13.3 41 5 57 57 E 8 13 30.18 1022 10 16 0.00 0.00
8:53 am 08:53 Sunny 63 17.2 43 6.1 48 48 ENE 8 13 30.16 1021 10 16 0.00 0.00
9:53 am 09:53 Sunny 71 21.7 44 6.7 38 38 NNE 6 9 30.14 1021 10 16 0.00 0.00
10:53 am 10:53 Sunny 76 24.4 42 5.6 30 30 NE 8 13 30.12 1020 10 16 0.00 0.00
11:53 am 11:53 Sunny 77 25 44 6.7 31 31 VRB 3 6 30.11 1020 10 16 0.00 0.00
12:53 pm 12:53 Sunny 80 26.7 44 6.7 28 28 VRB 3 6 30.08 1019 10 16 0.00 0.00
1:53 pm 13:53 Sunny 81 27.2 44 6.7 27 27 Calm 30.06 1018 10 16 0.00 0.00
2:53 pm 14:53 Sunny 85 29.4 45 7.2 25 25 VRB 7 11 30.03 1017 10 16 0.00 0.00
3:53 pm 15:53 Sunny 84 28.9 45 7.2 25 25 Calm 30.02 1017 10 16 0.00 0.00
4:53 pm 16:53 Sunny 87 30.6 43 6.1 21 21 undefined N/A 29.99 1016 10 16 0.00 0.00
5:53 pm 17:53 Mostly Sunny 87 30.6 42 5.6 21 21 VRB 5 7 29.98 1015 10 16 0.00 0.00
6:53 pm 18:53 Sunny 87 30.6 42 5.6 21 21 NW 9 15 29.97 1015 10 16 0.00 0.00
7:53 pm 19:53 Sunny 85 29.4 43 6.1 23 23 Calm 29.97 1015 10 16 0.00 0.00
8:53 pm 20:53 Sunny 82 27.8 44 6.7 26 26 Calm 29.97 1015 10 16 0.00 0.00
9:53 pm 21:53 Clear 70 21.1 55 12.8 59 59 SE 5 7 29.98 1015 10 16 0.00 0.00
10:53 pm 22:53 Clear 70 21.1 47 8.3 44 44 Calm 29.99 1016 10 16 0.00 0.00
11:53 pm 23:53 Clear 64 17.8 47 8.3 54 54 Calm 30.00 1016 10 16 0.00 0.00

Powered by AerisWeather